| time (UTC) | temp F | wind direction | speed MPH | gust MPH | rain 1hr in | rain 24hr in | rain mn in | humidity % | barometer mb |
| 20260508080903 | 60 | 0 | 0.0 | 0.0 | 0.00 | 0.00 | 0.00 | 86 | 1012.8 |
| 20260508080004 | 60 | 0 | 0.0 | 0.0 | 0.00 | 0.00 | 0.00 | 86 | 1013.1 |
| 20260508075404 | 60 | 0 | 0.0 | 0.0 | 0.00 | 0.00 | 0.00 | 86 | 1013.5 |
| 20260508074524 | 60 | 0 | 0.0 | 0.0 | 0.00 | 0.00 | 0.00 | 86 | 1013.6 |
| 20260508073624 | 60 | 0 | 0.0 | 0.0 | 0.00 | 0.00 | 0.00 | 85 | 1013.6 |
| 20260508072703 | 59 | 0 | 0.0 | 0.0 | 0.00 | 0.00 | 0.00 | 84 | 1013.5 |
| 20260508071803 | 60 | 0 | 0.0 | 0.0 | 0.00 | 0.00 | 0.00 | 84 | 1013.3 |
| 20260508070903 | 60 | 0 | 0.0 | 0.0 | 0.00 | 0.00 | 0.00 | 83 | 1013.2 |
| 20260508070004 | 60 | 0 | 0.0 | 0.0 | 0.00 | 0.00 | 0.00 | 83 | 1012.9 |
| 20260508065403 | 60 | 0 | 0.0 | 0.0 | 0.00 | 0.00 | 0.00 | 82 | 1013.1 |
| 20260508064524 | 60 | 0 | 0.0 | 0.0 | 0.00 | 0.00 | 0.00 | 82 | 1013.1 |
| 20260508063624 | 60 | 0 | 0.0 | 0.0 | 0.00 | 0.00 | 0.00 | 82 | 1013.2 |
| 20260508062704 | 60 | 0 | 0.0 | 0.0 | 0.00 | 0.00 | 0.00 | 81 | 1013.5 |
| 20260508061803 | 60 | 0 | 0.0 | 0.0 | 0.00 | 0.00 | 0.00 | 81 | 1013.6 |
| 20260508060903 | 60 | 0 | 0.0 | 0.0 | 0.00 | 0.00 | 0.00 | 81 | 1013.6 |
| 20260508060024 | 61 | 0 | 0.0 | 0.0 | 0.00 | 0.00 | 0.00 | 81 | 1013.8 |
| 20260508055404 | 61 | 0 | 0.0 | 0.0 | 0.00 | 0.00 | 0.00 | 81 | 1013.8 |
| 20260508054503 | 61 | 0 | 0.0 | 0.0 | 0.00 | 0.00 | 0.00 | 80 | 1013.8 |
| 20260508053624 | 61 | 0 | 0.0 | 0.0 | 0.00 | 0.00 | 0.00 | 80 | 1013.8 |
| 20260508052703 | 61 | 0 | 0.0 | 0.0 | 0.00 | 0.00 | 0.00 | 80 | 1014.0 |
| 20260508051803 | 61 | 0 | 0.0 | 0.0 | 0.00 | 0.00 | 0.00 | 79 | 1014.1 |
| 20260508050903 | 61 | 0 | 0.0 | 0.0 | 0.00 | 0.00 | 0.00 | 79 | 1014.0 |
| 20260508050025 | 62 | 0 | 0.0 | 0.0 | 0.00 | 0.00 | 0.00 | 79 | 1014.0 |
| 20260508045403 | 62 | 0 | 0.0 | 0.0 | 0.00 | 0.00 | 0.00 | 79 | 1014.1 |
| 20260508044503 | 62 | 0 | 0.0 | 0.0 | 0.00 | 0.00 | 0.00 | 79 | 1013.9 |
| 20260508043624 | 62 | 0 | 0.0 | 0.0 | 0.00 | 0.00 | 0.00 | 80 | 1013.7 |
| 20260508042704 | 62 | 0 | 0.0 | 0.0 | 0.00 | 0.00 | 0.00 | 79 | 1013.9 |
| 20260508041803 | 62 | 0 | 0.0 | 0.0 | 0.00 | 0.00 | 0.00 | 77 | 1013.8 |
| 20260508040924 | 62 | 0 | 0.0 | 0.0 | 0.00 | 0.00 | 0.00 | 77 | 1013.8 |
| 20260508040003 | 63 | 0 | 0.0 | 0.0 | 0.00 | 0.00 | 0.00 | 77 | 1013.9 |
| 20260508035403 | 63 | 0 | 0.0 | 0.0 | 0.00 | 0.00 | 0.00 | 76 | 1013.9 |
| 20260508034503 | 63 | 0 | 0.0 | 0.0 | 0.00 | 0.00 | 0.00 | 75 | 1013.8 |
| 20260508033603 | 63 | 175 | 0.0 | 1.0 | 0.00 | 0.00 | 0.00 | 75 | 1013.6 |
| 20260508032724 | 63 | 175 | 0.0 | 2.0 | 0.00 | 0.00 | 0.00 | 74 | 1013.7 |
| 20260508031824 | 63 | 174 | 0.0 | 1.0 | 0.00 | 0.00 | 0.00 | 72 | 1013.3 |
| 20260508030904 | 63 | 175 | 0.0 | 2.0 | 0.00 | 0.00 | 0.00 | 72 | 1013.1 |
| 20260508030004 | 64 | 174 | 0.0 | 1.0 | 0.00 | 0.00 | 0.00 | 73 | 1012.8 |
| 20260508025403 | 64 | 174 | 0.0 | 1.0 | 0.00 | 0.00 | 0.00 | 71 | 1012.7 |
| 20260508024503 | 64 | 0 | 0.0 | 0.0 | 0.00 | 0.00 | 0.00 | 71 | 1012.9 |
| 20260508023603 | 64 | 0 | 0.0 | 0.0 | 0.00 | 0.00 | 0.00 | 70 | 1012.7 |
| 20260508022703 | 64 | 0 | 0.0 | 0.0 | 0.00 | 0.00 | 0.00 | 71 | 1012.7 |
| 20260508021803 | 65 | 0 | 0.0 | 0.0 | 0.00 | 0.00 | 0.00 | 69 | 1012.8 |
| 20260508020903 | 65 | 174 | 0.0 | 1.0 | 0.00 | 0.00 | 0.00 | 69 | 1012.6 |
| 20260508020004 | 65 | 175 | 0.0 | 2.0 | 0.00 | 0.00 | 0.00 | 69 | 1013.0 |
| 20260508015425 | 65 | 175 | 0.0 | 2.0 | 0.00 | 0.00 | 0.00 | 69 | 1012.8 |
| 20260508014524 | 65 | 175 | 1.0 | 2.0 | 0.00 | 0.00 | 0.00 | 69 | 1013.1 |
| 20260508013603 | 66 | 175 | 0.0 | 1.0 | 0.00 | 0.00 | 0.00 | 68 | 1012.8 |
| 20260508012703 | 66 | 174 | 0.0 | 1.0 | 0.00 | 0.00 | 0.00 | 67 | 1012.9 |
| 20260508011803 | 66 | 174 | 0.0 | 1.0 | 0.00 | 0.00 | 0.00 | 66 | 1012.9 |
| 20260508010903 | 66 | 174 | 0.0 | 2.0 | 0.00 | 0.00 | 0.00 | 65 | 1012.8 |
| 20260508010004 | 66 | 174 | 0.0 | 2.0 | 0.00 | 0.00 | 0.00 | 65 | 1012.7 |
| 20260508005405 | 66 | 174 | 1.0 | 3.0 | 0.00 | 0.00 | 0.00 | 65 | 1012.8 |
| 20260508004504 | 67 | 174 | 1.0 | 3.0 | 0.00 | 0.00 | 0.00 | 65 | 1013.0 |
| 20260508003625 | 67 | 174 | 1.0 | 2.0 | 0.00 | 0.00 | 0.00 | 65 | 1012.9 |
| 20260508002704 | 67 | 168 | 1.0 | 3.0 | 0.00 | 0.00 | 0.00 | 64 | 1013.0 |
| 20260508001825 | 67 | 167 | 1.0 | 3.0 | 0.00 | 0.00 | 0.00 | 62 | 1013.0 |
| 20260508000905 | 67 | 166 | 1.0 | 4.0 | 0.00 | 0.00 | 0.00 | 62 | 1013.1 |
| 20260508000005 | 67 | 168 | 1.0 | 4.0 | 0.00 | 0.00 | 0.00 | 63 | 1013.2 |
| 20260507235405 | 67 | 166 | 1.0 | 4.0 | 0.00 | 0.00 | 0.00 | 63 | 1013.3 |
| 20260507234505 | 68 | 164 | 2.0 | 5.0 | 0.00 | 0.00 | 0.00 | 61 | 1013.4 |
| 20260507233605 | 68 | 160 | 2.0 | 5.0 | 0.00 | 0.00 | 0.00 | 59 | 1013.5 |
| 20260507232704 | 68 | 160 | 1.0 | 2.0 | 0.00 | 0.00 | 0.00 | 60 | 1013.2 |
| 20260507231804 | 68 | 160 | 1.0 | 4.0 | 0.00 | 0.00 | 0.00 | 61 | 1013.1 |
| 20260507230904 | 68 | 172 | 1.0 | 2.0 | 0.00 | 0.00 | 0.00 | 61 | 1013.2 |
| 20260507230005 | 68 | 156 | 1.0 | 4.0 | 0.00 | 0.00 | 0.00 | 60 | 1013.5 |
| 20260507225405 | 68 | 149 | 1.0 | 3.0 | 0.00 | 0.00 | 0.00 | 59 | 1013.4 |
| 20260507224505 | 68 | 165 | 1.0 | 4.0 | 0.00 | 0.00 | 0.00 | 58 | 1013.6 |
| 20260507223626 | 68 | 168 | 1.0 | 4.0 | 0.00 | 0.00 | 0.00 | 58 | 1013.4 |
| 20260507222704 | 69 | 158 | 1.0 | 4.0 | 0.00 | 0.00 | 0.00 | 58 | 1013.7 |
| 20260507221804 | 69 | 172 | 2.0 | 4.0 | 0.00 | 0.00 | 0.00 | 58 | 1013.6 |
| 20260507220905 | 69 | 167 | 2.0 | 6.0 | 0.00 | 0.00 | 0.00 | 58 | 1013.9 |
| 20260507220026 | 69 | 164 | 2.0 | 6.0 | 0.00 | 0.00 | 0.00 | 58 | 1013.9 |
| 20260507215405 | 69 | 159 | 2.0 | 5.0 | 0.00 | 0.00 | 0.00 | 58 | 1013.7 |
| 20260507214525 | 70 | 164 | 2.0 | 6.0 | 0.00 | 0.00 | 0.00 | 58 | 1013.7 |
| 20260507213625 | 70 | 153 | 2.0 | 6.0 | 0.00 | 0.00 | 0.00 | 57 | 1014.1 |
| 20260507212704 | 70 | 106 | 1.0 | 4.0 | 0.00 | 0.00 | 0.00 | 58 | 1013.9 |
| 20260507211804 | 70 | 119 | 1.0 | 2.0 | 0.00 | 0.00 | 0.00 | 58 | 1014.1 |
| 20260507210904 | 70 | 132 | 1.0 | 5.0 | 0.00 | 0.00 | 0.00 | 56 | 1014.4 |
| 20260507210005 | 70 | 154 | 1.0 | 5.0 | 0.00 | 0.00 | 0.00 | 56 | 1014.7 |
| 20260507205404 | 70 | 145 | 0.0 | 3.0 | 0.00 | 0.00 | 0.00 | 57 | 1014.7 |
| 20260507204505 | 71 | 61 | 0.0 | 3.0 | 0.00 | 0.00 | 0.00 | 56 | 1014.9 |
| 20260507203604 | 71 | 63 | 1.0 | 5.0 | 0.00 | 0.00 | 0.00 | 57 | 1014.7 |
| 20260507202725 | 71 | 81 | 1.0 | 2.0 | 0.00 | 0.00 | 0.00 | 56 | 1014.8 |
| 20260507201805 | 71 | 54 | 1.0 | 4.0 | 0.00 | 0.00 | 0.00 | 58 | 1014.6 |
| 20260507200905 | 70 | 57 | 2.0 | 8.0 | 0.00 | 0.00 | 0.00 | 59 | 1014.6 |
| 20260507200004 | 70 | 61 | 3.0 | 9.0 | 0.00 | 0.00 | 0.00 | 57 | 1014.7 |
| 20260507195404 | 71 | 53 | 2.0 | 7.0 | 0.00 | 0.00 | 0.00 | 58 | 1014.7 |
| 20260507194504 | 70 | 65 | 2.0 | 6.0 | 0.00 | 0.00 | 0.00 | 58 | 1014.8 |
| 20260507193604 | 70 | 58 | 3.0 | 8.0 | 0.00 | 0.00 | 0.00 | 58 | 1014.9 |
| 20260507192704 | 71 | 76 | 1.0 | 8.0 | 0.00 | 0.00 | 0.00 | 59 | 1015.2 |
| 20260507191826 | 71 | 56 | 2.0 | 6.0 | 0.00 | 0.00 | 0.00 | 59 | 1015.4 |
| 20260507190905 | 70 | 42 | 2.0 | 8.0 | 0.00 | 0.00 | 0.00 | 58 | 1015.8 |
| 20260507190005 | 70 | 54 | 2.0 | 8.0 | 0.00 | 0.00 | 0.00 | 60 | 1016.0 |
| 20260507185405 | 70 | 69 | 1.0 | 8.0 | 0.00 | 0.00 | 0.00 | 60 | 1016.2 |
| 20260507184504 | 70 | 339 | 1.0 | 3.0 | 0.00 | 0.00 | 0.00 | 60 | 1016.3 |
| 20260507183605 | 70 | 37 | 2.0 | 6.0 | 0.00 | 0.00 | 0.00 | 60 | 1016.2 |
| 20260507182704 | 69 | 34 | 5.0 | 12.0 | 0.00 | 0.00 | 0.00 | 61 | 1016.1 |
| 20260507181804 | 69 | 38 | 5.0 | 11.0 | 0.00 | 0.00 | 0.00 | 59 | 1015.9 |
| 20260507180904 | 69 | 55 | 5.0 | 11.0 | 0.00 | 0.00 | 0.00 | 60 | 1015.8 |
| 20260507180004 | 69 | 33 | 6.0 | 14.0 | 0.00 | 0.00 | 0.00 | 59 | 1016.1 |
| 20260507175425 | 69 | 23 | 6.0 | 11.0 | 0.00 | 0.00 | 0.00 | 61 | 1016.1 |
| 20260507174504 | 69 | 25 | 5.0 | 12.0 | 0.00 | 0.00 | 0.00 | 61 | 1016.1 |
| 20260507173625 | 69 | 11 | 6.0 | 11.0 | 0.00 | 0.00 | 0.00 | 62 | 1016.1 |
| 20260507172704 | 70 | 15 | 6.0 | 13.0 | 0.00 | 0.00 | 0.00 | 63 | 1016.5 |
| 20260507171804 | 69 | 29 | 7.0 | 13.0 | 0.00 | 0.00 | 0.00 | 65 | 1016.3 |
| 20260507170904 | 68 | 20 | 7.0 | 14.0 | 0.00 | 0.00 | 0.00 | 64 | 1016.6 |
| 20260507170005 | 68 | 23 | 5.0 | 10.0 | 0.00 | 0.00 | 0.00 | 65 | 1016.7 |
| 20260507165404 | 68 | 24 | 5.0 | 12.0 | 0.00 | 0.00 | 0.00 | 66 | 1016.8 |
| 20260507164504 | 68 | 41 | 5.0 | 11.0 | 0.00 | 0.00 | 0.00 | 66 | 1017.3 |
| 20260507163604 | 67 | 15 | 4.0 | 13.0 | 0.00 | 0.00 | 0.00 | 69 | 1017.4 |
| 20260507162704 | 66 | 30 | 4.0 | 9.0 | 0.00 | 0.00 | 0.00 | 70 | 1017.5 |
| 20260507161826 | 66 | 29 | 4.0 | 10.0 | 0.00 | 0.00 | 0.00 | 71 | 1017.8 |
| 20260507160904 | 65 | 17 | 4.0 | 9.0 | 0.00 | 0.00 | 0.00 | 73 | 1017.7 |
| 20260507160004 | 65 | 25 | 4.0 | 11.0 | 0.00 | 0.00 | 0.00 | 74 | 1017.6 |
| 20260507155404 | 64 | 38 | 4.0 | 9.0 | 0.00 | 0.00 | 0.00 | 75 | 1017.6 |
| 20260507154505 | 63 | 46 | 4.0 | 9.0 | 0.00 | 0.00 | 0.00 | 76 | 1017.6 |
| 20260507153604 | 62 | 30 | 4.0 | 10.0 | 0.00 | 0.00 | 0.00 | 77 | 1017.6 |
| 20260507152705 | 62 | 38 | 5.0 | 11.0 | 0.00 | 0.00 | 0.00 | 78 | 1017.6 |
| 20260507151804 | 61 | 25 | 5.0 | 11.0 | 0.00 | 0.00 | 0.00 | 80 | 1017.8 |
| 20260507150904 | 61 | 33 | 4.0 | 11.0 | 0.00 | 0.01 | 0.00 | 81 | 1018.0 |
| 20260507150005 | 60 | 27 | 4.0 | 9.0 | 0.00 | 0.01 | 0.00 | 82 | 1018.0 |
| 20260507145404 | 60 | 24 | 4.0 | 11.0 | 0.00 | 0.01 | 0.00 | 83 | 1018.0 |
| 20260507144525 | 60 | 13 | 4.0 | 10.0 | 0.00 | 0.01 | 0.00 | 84 | 1018.2 |
| 20260507143604 | 59 | 34 | 3.0 | 9.0 | 0.00 | 0.01 | 0.00 | 85 | 1018.1 |
| 20260507142704 | 58 | 27 | 4.0 | 8.0 | 0.00 | 0.01 | 0.00 | 86 | 1018.2 |
| 20260507141804 | 58 | 23 | 3.0 | 8.0 | 0.00 | 0.01 | 0.00 | 88 | 1018.4 |
| 20260507140904 | 57 | 359 | 4.0 | 7.0 | 0.00 | 0.01 | 0.00 | 89 | 1018.5 |
| 20260507140005 | 57 | 1 | 4.0 | 8.0 | 0.00 | 0.01 | 0.00 | 90 | 1018.2 |
| 20260507135404 | 56 | 360 | 4.0 | 8.0 | 0.00 | 0.01 | 0.00 | 90 | 1018.2 |
| 20260507134505 | 56 | 4 | 2.0 | 5.0 | 0.00 | 0.01 | 0.00 | 91 | 1018.2 |
| 20260507133604 | 56 | 8 | 2.0 | 5.0 | 0.00 | 0.01 | 0.00 | 91 | 1018.3 |
| 20260507132705 | 55 | 12 | 2.0 | 4.0 | 0.00 | 0.01 | 0.00 | 91 | 1018.4 |
| 20260507131804 | 55 | 11 | 2.0 | 4.0 | 0.00 | 0.01 | 0.00 | 91 | 1018.5 |
| 20260507130904 | 54 | 357 | 2.0 | 6.0 | 0.00 | 0.01 | 0.00 | 91 | 1018.5 |
| 20260507130004 | 54 | 350 | 2.0 | 4.0 | 0.00 | 0.01 | 0.00 | 91 | 1018.4 |
| 20260507125404 | 53 | 348 | 1.0 | 4.0 | 0.00 | 0.01 | 0.00 | 91 | 1018.4 |
| 20260507124525 | 53 | 348 | 0.0 | 3.0 | 0.00 | 0.01 | 0.00 | 90 | 1018.4 |
| 20260507123604 | 53 | 348 | 1.0 | 2.0 | 0.00 | 0.01 | 0.00 | 90 | 1018.4 |
| 20260507122705 | 52 | 348 | 0.0 | 2.0 | 0.00 | 0.01 | 0.00 | 90 | 1018.8 |
| 20260507121804 | 52 | 348 | 0.0 | 1.0 | 0.00 | 0.01 | 0.00 | 90 | 1018.8 |
| 20260507120904 | 52 | 0 | 0.0 | 0.0 | 0.00 | 0.01 | 0.00 | 89 | 1018.7 |
| 20260507120005 | 52 | 0 | 0.0 | 0.0 | 0.00 | 0.01 | 0.00 | 89 | 1018.7 |
| 20260507115404 | 52 | 0 | 0.0 | 0.0 | 0.00 | 0.01 | 0.00 | 89 | 1018.8 |
| 20260507114504 | 52 | 0 | 0.0 | 0.0 | 0.00 | 0.01 | 0.00 | 89 | 1018.6 |
| 20260507113604 | 52 | 0 | 0.0 | 0.0 | 0.00 | 0.01 | 0.00 | 89 | 1018.4 |
| 20260507112704 | 52 | 0 | 0.0 | 0.0 | 0.00 | 0.01 | 0.00 | 88 | 1018.4 |
| 20260507111825 | 52 | 0 | 0.0 | 0.0 | 0.00 | 0.01 | 0.00 | 88 | 1018.1 |
| 20260507110904 | 52 | 0 | 0.0 | 0.0 | 0.00 | 0.01 | 0.00 | 88 | 1018.0 |
| 20260507110025 | 52 | 0 | 0.0 | 0.0 | 0.00 | 0.01 | 0.00 | 88 | 1018.0 |
| 20260507105404 | 52 | 0 | 0.0 | 0.0 | 0.00 | 0.01 | 0.00 | 88 | 1017.7 |
| 20260507104505 | 53 | 0 | 0.0 | 0.0 | 0.00 | 0.01 | 0.00 | 88 | 1017.5 |
| 20260507103604 | 53 | 348 | 0.0 | 3.0 | 0.00 | 0.01 | 0.00 | 88 | 1017.1 |
| 20260507102704 | 53 | 353 | 2.0 | 5.0 | 0.00 | 0.01 | 0.00 | 88 | 1017.0 |
| 20260507101804 | 53 | 354 | 1.0 | 3.0 | 0.00 | 0.01 | 0.00 | 88 | 1016.8 |
| 20260507100904 | 53 | 358 | 2.0 | 4.0 | 0.00 | 0.01 | 0.00 | 88 | 1016.7 |
| 20260507100025 | 53 | 344 | 1.0 | 4.0 | 0.00 | 0.01 | 0.00 | 88 | 1016.6 |
| 20260507095404 | 53 | 5 | 2.0 | 6.0 | 0.00 | 0.01 | 0.00 | 88 | 1016.2 |
| 20260507094525 | 54 | 4 | 2.0 | 5.0 | 0.00 | 0.01 | 0.00 | 87 | 1016.0 |
| 20260507093604 | 54 | 9 | 2.0 | 5.0 | 0.00 | 0.01 | 0.00 | 87 | 1016.1 |
| 20260507092704 | 54 | 14 | 2.0 | 5.0 | 0.00 | 0.01 | 0.00 | 87 | 1015.9 |
| 20260507091804 | 54 | 18 | 2.0 | 5.0 | 0.00 | 0.01 | 0.00 | 87 | 1015.7 |
| 20260507090904 | 54 | 28 | 2.0 | 5.0 | 0.00 | 0.01 | 0.00 | 87 | 1015.7 |
| 20260507090005 | 55 | 39 | 1.0 | 4.0 | 0.00 | 0.01 | 0.00 | 86 | 1015.7 |
| 20260507085404 | 55 | 0 | 0.0 | 0.0 | 0.00 | 0.01 | 0.00 | 87 | 1015.9 |
| 20260507084504 | 55 | 0 | 0.0 | 0.0 | 0.00 | 0.01 | 0.00 | 86 | 1016.0 |
| 20260507083604 | 55 | 52 | 2.0 | 4.0 | 0.00 | 0.01 | 0.00 | 86 | 1015.9 |
| 20260507082704 | 55 | 35 | 4.0 | 9.0 | 0.00 | 0.01 | 0.00 | 86 | 1015.6 |
| 20260507081804 | 56 | 24 | 4.0 | 10.0 | 0.00 | 0.01 | 0.00 | 86 | 1015.3 |